カタログに戻る

METEOR 2-5 DEB

運用中PO
NORAD 35506·DEBRIS·🇷🇺 Russia

打ち上げ Oct 31, 1979 から Plesetsk Cosmodrome

Loading…

次のパス (今後24時間)

TLE

最新Source: Space-Track

元期: Sep 11, 2026, 08:59 UTC

1 35506U 79095Z   26254.37450405  .00013945  00000-0  20265-2 0  9995
2 35506  81.1807 280.5234 0011132  97.0250 263.2224 14.75837511302324

AllMySatでMETEOR 2-5 DEBをリアルタイム追跡

Download on the App Store